[Iaude] MPEC M112: 2024 MG1 [a=1.49,e=0.40,i=7.2,H=24.0]
    mpec at cfa.harvard.edu 
    mpec at cfa.harvard.edu
       
    Sat Jun 29 02:48:35 EDT 2024
    
    
  
M.P.E.C. 2024-M112                                Issued 2024 June 29, 06:46 UT
     The Minor Planet Electronic Circulars contain information on unusual
         minor planets, routine data on comets and natural satellites,
         and occasional editorial announcements.  They are published
    on behalf of Division F of the International Astronomical Union by the
          Minor Planet Center, Smithsonian Astrophysical Observatory,
                          Cambridge, MA 02138, U.S.A.
			  
             Prepared using the Tamkin Foundation Computer Network
                              MPC at CFA.HARVARD.EDU
            URL https://www.minorplanetcenter.net/    ISSN 1523-6714
                                    2024 MG1                                    
Observations:
     K24M01G* C2024 06 27.35459017 23 45.603+07 11 20.80         21.10wXEM112F52
     K24M01G  C2024 06 27.36330717 23 44.245+07 11 30.90         21.45wXEM112F52
     K24M01G  C2024 06 27.37198617 23 42.895+07 11 40.97         21.14wXEM112F52
     K24M01G  C2024 06 27.38067517 23 41.541+07 11 51.15         21.13wXEM112F52
     K24M01G  C2024 06 27.48984817 23 24.513+07 13 57.01         20.88GVEM112F51
     K24M01G  C2024 06 27.49049317 23 24.413+07 13 57.73         21.08GVEM112F51
     K24M01G KC2024 06 28.27020 17 21 40.91 +07 29 04.9          20.9 RVEM112691
     K24M01G KC2024 06 28.27454 17 21 40.23 +07 29 10.3                VEM112691
     K24M01G KC2024 06 28.27889 17 21 39.50 +07 29 15.4          21.0 RVEM112691
     K24M01G |C2024 06 29.17282017 19 30.380+07 48 27.40         20.8 GVEM112807
     K24M01G |C2024 06 29.17649017 19 29.780+07 48 32.10         20.8 GVEM112807
     K24M01G |C2024 06 29.18015017 19 29.120+07 48 36.20         21.1 GVEM112807
     K24M01G |C2024 06 29.18382517 19 28.480+07 48 40.70         20.7 GVEM112807
Observer details:
691 Steward Observatory, Kitt Peak-Spacewatch.  Observer R. A. Mastaler.
    0.9-m f/3 reflector + CCD.
807 Cerro Tololo Observatory, La Serena.  Observers T. Linder, R. Holmes.
    0.61-m f/6.8 Ritchey-Chretien + CCD.
F51 Pan-STARRS 1, Haleakala.  Observers J. Herman, T. Lowe, P. Minguez, A.
    Schultz, I. Smith.  Measurers K. Chambers, T. de Boer, J. Fairlamb, H.
    Gao, M. Huber, C.-C. Lin, E. Magnier, Y. Ramanjooloo, R. Wainscoat, R.
    Weryk.  1.8-m Ritchey-Chretien + CCD.
F52 Pan-STARRS 2, Haleakala.  Observers J. Herman, T. Lowe, P. Minguez, A.
    Schultz, I. Smith.  Measurers K. Chambers, T. de Boer, J. Fairlamb, H.
    Gao, M. Huber, C.-C. Lin, E. Magnier, Y. Ramanjooloo, R. Wainscoat, R.
    Weryk.  1.8-m Ritchey-Chretien + CCD.
Orbital elements:
2024 MG1                                                 Earth MOID = 0.0170 AU
Epoch 2024 Mar. 31.0 TT = JDT 2460400.5                 MPC                     
M 277.19819              (2000.0)            P               Q                  
n   0.54339151     Peri.  225.35665     +0.97442040     +0.19861441             
a   1.4872848      Node   122.91566     -0.15383078     +0.93058237             
e   0.3967106      Incl.    7.19584     -0.16383215     +0.30752035             
P   1.81           H   24.03          G   0.15           U   8                  
Residuals in seconds of arc
240627 F52  0.0   0.1+    240627 F51  0.0   0.1+    240629 807  0.3+  0.2+
240627 F52  0.0   0.0     240628 691  0.2-  0.1-    240629 807  0.0   0.2-
240627 F52  0.0   0.1-    240628 691  0.3+  0.1+    240629 807  0.0   0.1-
240627 F52  0.1+  0.0     240628 691  0.0   0.0
240627 F51  0.0   0.1+    240629 807  0.3-  0.0
Ephemeris:
2024 MG1                 a,e,i = 1.49, 0.40, 7                   q = 0.8973
Date    TT    R. A. (2000) Decl.     Delta      r    Elong.  Phase     V
2024 05 30    17 51 16.3 -00 27 14   0.3210  1.3029   150.6    22.5    23.2
...
2024 06 14    17 43 18.6 +03 22 14   0.2152  1.2116   153.2    22.2    22.2
...
2024 06 22    17 33 33.8 +05 34 14   0.1662  1.1633   150.1    25.8    21.6
...
2024 06 28    17 22 18.5 +07 24 11   0.1322  1.1278   145.4    30.8    21.2
2024 06 29    17 19 56.7 +07 44 12   0.1267  1.1220   144.3    31.9    21.1
2024 06 30    17 17 24.1 +08 04 54   0.1213  1.1162   143.3    33.0    21.1
...
2024 07 06    16 56 48.8 +10 31 10   0.08973 1.0820   134.9    41.7    20.6
...
2024 07 14    15 55 07.3 +16 10 04   0.05119 1.0387   114.4    63.0    19.9
...
2024 07 29    08 18 26.2 +11 01 02   0.04759 0.9683     8.6   171.0
A. U. Tomatic                (C) Copyright 2024 MPC           M.P.E.C. 2024-M112
    
    
More information about the Iaude
mailing list